sat.trackr.live / text

‹ back to catalog

STARLINK-5289

NORAD 55278 · 2023-010K

PAYLOAD ACTIVE UNKNOWN

§ Identity

Operator
Country
US
Launch date
2023-01-19
Launch site
AFWTR
Launch vehicle
Mass (kg)
RCS (m²)

Purposes: comms

External: N2YO · Heavens-Above · Gunter

§ Orbital elements

Epoch: 2026-09-20T17:38:45.122208Z

Period
96.08 min
Inclination
69.9942°
Eccentricity
0.0004507
Mean motion
14.98768779 rev/d
Perigee alt
567.6 km
Apogee alt
573.8 km
Semi-major
6,948.8 km
B*
4.0490e-3
RAAN
272.5899°
Arg perigee
279.0716°
Mean anomaly
80.9933°
Rev number
20,199

§ Raw data

STARLINK-52891 55278U 23010K   26263.73524447  .00049119  00000+0  40490-2 0  99902 55278  69.9942 272.5899 0004507 279.0716  80.9933 14.98768779201997

JSON: /api/v1/satellites/55278 · /tle

For live sub-satellite position, see the globe view (requires WebGL).

§ Visibility from observer

Set your observer location to see the next 7 days of passes ≥ 10°. The values pass through the URL so the page stays shareable.

No JS? Fill the form by hand. The geolocation button needs JavaScript.